Other Public Products
Issued by NWS Grand Forks, ND

Home | Current Version | Previous Version | Text Only | Print | Product List | Glossary Off
Versions: 1 2 3 4 5 6 7 8 9 10 11 12 13 14 15 16 17 18 19 20 21 22 23 24 25 26 27 28 29 30 31 32 33 34 35 36 37 38 39 40 41 42 43 44 45 46 47 48 49 50

000
FPUS83 KFGF 031731
OPUFGF
PRAIRIE TO PINES WEATHER ROUNDUP
NATIONAL WEATHER SERVICE EASTERN NORTH DAKOTA/GRAND FORKS ND
1200 PM CDT TUE MAY 03 2016

 **SATELLITE DATA USED TO AUGMENT SKY COVER AT AUTOMATED STATIONS**
 *****  WEATHER ACROSS EASTERN NORTH DAKOTA  *****

CITY           SKY/WX    TMP DP  RH WIND       PRES   REMARKS
GRAND FORKS    MOSUNNY   65  32  29 N28G39    29.88R
GRAND FORKS AF SUNNY     65  30  27 N22G31    29.90R
GRAND CITY NWS NOT AVBL
BUXTON           N/A     65  33  29 N21G35      N/A
DEVILS LAKE    SUNNY     62  29  28 N24G31    29.96R
FARGO          SUNNY     72  32  23 N23G30    29.84S
WAHPETON ARPT  SUNNY     72  37  28 NW22G29   29.84F
$$

 *****  WEATHER ACROSS CENTRAL AND WESTERN NORTH DAKOTA  *****

CITY           SKY/WX    TMP DP  RH WIND       PRES   REMARKS
JAMESTOWN      SUNNY     67  40  37 N21G28    29.91R
BISMARCK       SUNNY     71  38  29 NW15G24   30.00R
MINOT          SUNNY     73  29  19 N17G24    30.01S
MINOT AFB      SUNNY     68  31  25 N14G20    30.01R
GARRISON         N/A     71  35  26 N16G23    30.01R
WILLISTON      SUNNY     75  37  25 N7        30.06S
DICKINSON      SUNNY     72  33  24 N15       30.05R
HETTINGER      SUNNY     71  32  23 N10       30.08S
$$

 *****  OTHER OBSERVATIONS NORTHEAST NORTH DAKOTA  *****

CITY           SKY/WX    TMP DP  RH WIND       PRES   REMARKS
WALHALLA       FAIR      63  32  31 N25G35    29.94
LANGDON        FAIR      64  28  25 N28G35    29.95S
CAVALIER       FAIR      61  32  33 N21G35    29.92R
GRAFTON        FAIR      63  32  31 N25G35    29.91S
CANDO          FAIR      63  28  27 N22G28    30.00S
FORT TOTTEN      N/A     62  33  33 N8        29.95S
ROLLA          FAIR      63  25  23 N25G31    30.00
RUGBY          FAIR      66  28  24 N18G25    29.99R
 ***** THE ABOVE OBSERVATIONS ARE NON NWS ARE NOT QUALITY
        CONTROLLED AND MAY MIS-REPORT RAIN FOR SNOW...
$$

 *****  OTHER OBSERVATIONS SOUTHEAST NORTH DAKOTA *****

CITY           SKY/WX    TMP DP  RH WIND       PRES   REMARKS
COOPERSTOWN    NOT AVBL
VALLEY CITY    FAIR      68  36  30 N20G28    29.92S
OAKES            N/A    N/A N/A N/A MISG        N/A
GWINNER        FAIR      73  37  27 NW21G29   29.88F
SHEYENNE NWR     N/A     72  39  30 NW15      29.95S
BUFFALO          N/A     67  29  24 N22         N/A
WYNDMERE         N/A     72  45  37 W16         N/A
 ***** THE ABOVE OBSERVATIONS ARE NON NWS ARE NOT QUALITY
       CONTROLLED AND MAY MIS-REPORT RAIN FOR SNOW...
$$

  *****  WEATHER ACROSS NORTHERN MINNESOTA  *****

CITY           SKY/WX    TMP DP  RH WIND       PRES   REMARKS
FLAG ISLAND    SUNNY     54  30  40 N22G31    29.81R
WARROAD        SUNNY     61  34  36 NW16G28   29.83S
ROSEAU         SUNNY     63  27  25 NW20G25   29.84S
HALLOCK        SUNNY     64  27  24 N20G32    29.88R
THF RVR FALLS  SUNNY     63  28  27 N23G31    29.86S
HALSTAD          N/A     67  28  23 N29         N/A
FOSSTON        SUNNY     64  28  25 NW22G30   29.82S
BAUDETTE       SUNNY     59  27  29 N24G31    29.80R
WASKISH        MOSUNNY   63  36  36 NW14G22   29.78R
CROOKSTON      SUNNY     64  28  25 N28G35    29.87R
$$
  *****  WEATHER ACROSS CENTRAL AND WEST MINNESOTA  *****

CITY           SKY/WX    TMP DP  RH WIND       PRES   REMARKS
BEMIDJI        SUNNY     64  33  32 NW17G26   29.78S
PARK RAPIDS    PTSUNNY   68  40  35 W21G28    29.78F
WADENA         MOSUNNY   64  43  45 W14G24    29.80F
DETROIT LAKES  SUNNY     66  34  30 N16G30    29.82F
MOORHEAD       SUNNY     72  30  21 N28G38    29.84S
FERGUS FALLS   MOSUNNY   68  43  40 W18G25    29.81F
ELBOW LAKE     FAIR      65  41  41 W17G23    29.85F
MORRIS MN      CLOUDY    68  43  40 W20       29.86F
STAPLES        PTSUNNY   64  37  36 W18G24    29.79F
WHEATON        MOSUNNY   72  45  37 W12G18    29.88F
$$
  *****  WEATHER ELSEWHERE ACROSS MINNESOTA  *****

CITY           SKY/WX    TMP DP  RH WIND       PRES   REMARKS
DULUTH         CLOUDY    63  34  33 W21G31    29.70F
INTRNTL FALLS  MOSUNNY   62  33  33 NW18      29.73R
ELY            SUNNY     59  37  44 NW10G23   29.69F
CLOQUET        CLOUDY    63  30  29 W20G29    29.71F
BRAINERD       CLOUDY    63  38  39 W17G24    29.79F
HIBBING        PTSUNNY   62  37  39 NW21G28   29.71F
ALEXANDRIA     MOSUNNY   63  42  46 W18G26    29.86F
SAINT CLOUD    MOSUNNY   67  39  35 W22G29    29.84F
MINNEAPOLIS    PTSUNNY   67  41  38 W20       29.86F
$$

  *****  WEATHER ACROSS SOUTH DAKOTA  *****

CITY           SKY/WX    TMP DP  RH WIND       PRES   REMARKS
SIOUX FALLS    MOSUNNY   63  44  50 NW16G24   29.98F
BROOKINGS      SUNNY     62  45  53 W20G25    29.95F
WATERTOWN      SUNNY     64  43  46 NW17G26   29.94F
HURON          SUNNY     66  44  45 NW20G25   29.98F
SISSETON         N/A     68  40  35 NW17G24   29.87F
ABERDEEN       SUNNY     69  44  40 NW15      29.94F
MITCHELL       SUNNY     64  47  53 W17       30.01F
PIERRE         SUNNY     65  45  48 NW15      30.02F
MOBRIDGE       SUNNY     70  48  45 NW12      29.97F
RAPID CITY     SUNNY     67  39  35 N14       30.11S
$$

  *****  SOME WEATHER IN NEARBY STATES *****

CITY           SKY/WX    TMP DP  RH WIND       PRES   REMARKS
GLASGOW MT     SUNNY     72  42  34 W6        30.09S
GREAT FALLS MT SUNNY     68  37  32 SW8       30.12F
CHEYENNE WY    MOSUNNY   55  31  39 MISG      30.25R
SCOTTSBLUFF NE SUNNY     65  38  36 NW15G21   30.16R
OMAHA NE       MOSUNNY   67  39  35 NW14      30.04F
DES MOINES IA  MOSUNNY   66  37  34 W9        30.01F
DAVENPORT IA   MOSUNNY   65  44  46 NW15      29.98F
CHICAGO IL     PTSUNNY   64  39  39 VRB6      29.91F
EAU CLAIRE WI  CLOUDY    67  30  25 W21G30    29.82F
LA CROSSE WI   CLOUDY    68  37  32 W12       29.86F
$$

  *****  SOME NATIONAL WEATHER *****

CITY           SKY/WX    TMP DP  RH WIND       PRES   REMARKS
LA GUARDIA NY  DRIZZLE   53  52  96 NE16      29.83F
RALEIGH NC     CLOUDY    73  66  78 SW9       29.82F
ATLANTA GA     PTSUNNY   76  61  59 W12       29.91F
NEW ORLEANS LA CLOUDY    74  67  78 NW8       29.96F
OKLAHOMA CITY  MOSUNNY   66  42  41 W7        30.12S
ALBUQUERQUE NM MOSUNNY   61  35  37 VRB3      30.22R
SALT LAKE CITY MOSUNNY   65  32  29 VRB6      30.24S
LOS ANGELES CA MOSUNNY   65  57  75 SW9       29.98S
BOISE ID       SUNNY     68  35  29 CALM      30.16S
SEATTLE WA     PTSUNNY   62  50  64 CALM      30.06S
$$

*** WEATHER ACROSS MANITOBA...SASKATCHEWAN AND ONTARIO ***
                ***ONTARIO***

CITY           SKY/WX    TMP DP  RH WIND       PRES   REMARKS
GERALDTON      CLOUDY    46  45  93 S5        29.57F
THUNDER BAY    LGT RAIN  61  43  51 NW8       29.59F
SIOUX LOOKOUT  PTSUNNY   55  32  41 N16G28    29.73R
TORONTO        PTSUNNY   54  43  66 SE12G18   29.86F
BIG TROUT LK   CLOUDY    36  34  93 N16G26    29.80R
PICKLE LAKE    CLOUDY    36  32  87 N9G18     29.74R
DRYDEN         MOSUNNY   55  30  38 N13G24    29.75R
KENORA         MOSUNNY   57  28  33 N21G35    29.80R
$$
                *** MANITOBA***

CITY           SKY/WX    TMP DP  RH WIND       PRES   REMARKS
BRANDON        SUNNY     63  30  29 N17G26    30.02R
DAUPHIN        SUNNY     59  34  38 N15G21    30.05R
ISLAND LAKE    CLOUDY    37  30  75 N13G18    29.99R
PILOT MOUND      N/A     61  27  27 N20G26      N/A
THE PAS        SUNNY     50  30  46 N8        30.10S
THOMPSON       SUNNY     46  25  42 N9G17     30.08R
WINNIPEG       SUNNY     59  27  29 N24G35    29.93R
LYNN LAKE      SUNNY     48  23  37 N8        30.11S
CHURCHILL      PTSUNNY   25  19  80 N18       30.15R WCI  11
GILLAM         PTSUNNY   34  25  69 N15G22    30.08R WCI  24
$$
                ***SASKATCHEWAN***

CITY           SKY/WX    TMP DP  RH WIND       PRES   REMARKS
ESTEVAN        MOSUNNY   73  36  25 NE5       30.05R
KINDERSLEY     MOSUNNY   77  39  25 VRB3      30.05S
LLOYDMINSTER   MOSUNNY   77  41  27 SW5       30.01S
PRINCE ALBERT  PTSUNNY   64  34  32 SE13      30.07R
REGINA         MOSUNNY   73  39  29 N8        30.06S
YORKTON        SUNNY     63  27  25 N12       30.08R  C1F1C2F2C3F3C4F4C5F5C6F6C7F7C8F8C9F9CaFaCbFbCcFcCdFdCe!



USA.gov is the U.S. government's official web portal to all federal, state and local government web resources and services.